Regional Weather Roundup
Issued by NWS Jackson, KY

Home | Current Version | Previous Version | Text Only | Print | Product List | Glossary On
Versions: 1 2 3 4 5 6 7 8 9 10 11 12 13 14 15 16 17 18 19 20 21 22 23 24 25 26 27 28 29 30 31 32 33 34 35 36 37 38 39 40 41 42 43 44 45 46 47 48 49 50
000
ASUS43 KJKL 291610
RWRJKL

EAST KENTUCKY HOURLY WEATHER ROUNDUP
NATIONAL WEATHER SERVICE JACKSON KY
1200 PM EDT WED JUL 29 2015

NOTE: "FAIR" INDICATES FEW OR NO CLOUDS BELOW 12,000 FEET WITH
NO SIGNIFICANT WEATHER AND/OR OBSTRUCTIONS TO VISIBILITY.

* THESE REPORTS ARE NOT UNDER NWS QUALITY CONTROL AND MAY NOT
  REPORT WEATHER SUCH AS PRECIPITATION AND FOG.

KYZ079-080-083-085-087-088-110-112-115-119-120-291700
...EASTERN KENTUCKY...

CITY           SKY/WX    TMP DP  RH WIND       PRES   REMARKS
JACKSON        MOSUNNY   82  73  74 CALM      30.06F
LONDON         CLOUDY    79  71  76 SE5       30.06F
SOMERSET*      CLOUDY    77  75  94 S3        30.06F
MONTICELLO*    MOSUNNY   85  76  74 CALM      30.07F HX  94
WILLIAMSBURG*  CLOUDY    75  75 100 CALM      30.07F
MIDDLESBORO*   MOSUNNY   82  74  74 CALM      30.07S
HAZARD APT*    SUNNY     84  72  65 CALM      30.06F
BLACK MTN*       N/A     77  68  73 VRB5        N/A
PIKEVILLE APT* PTSUNNY   81  73  78 CALM      30.08R
BIG SANDY*     MOSUNNY   83  74  75 CALM      30.06S
MOREHEAD APT*  MOSUNNY   84  73  70 CALM      30.04F HX  91
$$

KYZ035-036-041-042-044-050-067-078-099-291700
...CENTRAL KENTUCKY...

CITY           SKY/WX    TMP DP  RH WIND       PRES   REMARKS
MT STERLING*   SUNNY     82  75  78 CALM      30.04F
FLEMING/MASON* MOSUNNY  N/A N/A N/A CALM      30.02F
DANVILLE*      MOSUNNY   82  77  83 S6        30.05S HX  91
RICHMOND*      PTSUNNY   84  75  74 SW5       30.03F HX  92
LEXINGTON      SUNNY     85  77  77 VRB3      30.02F HX  95
FRANKFORT      MOSUNNY   86  75  69 VRB3      30.00F HX  95
$$

KYZ091>093-OHZ055-061-077-WVZ005-015-034-035-042-291700
...SOUTHERN OHIO/WEST VIRGINIA...

CITY           SKY/WX    TMP DP  RH WIND       PRES   REMARKS
COVINGTON      PTSUNNY   88  74  63 VRB6      30.00S HX  96
COLUMBUS       MOSUNNY   86  69  56 W3        29.99F HX  90
DAYTON         PTSUNNY   85  75  72 SW6       30.01S HX  93
WILMINGTON     MOSUNNY   85  72  65 VRB5      30.01S HX  91
HUNTINGTON     MOSUNNY   85  74  69 W6        30.01F HX  92
CHARLESTON     MOSUNNY   85  74  69 VRB3      30.02F HX  92
PINEVILLE*     MOSUNNY   82  73  75 MISG      30.13S
BECKLEY        PTSUNNY   76  72  87 SE5       30.12S
BLUEFIELD      CLOUDY    76  69  79 SE3       30.16R
$$

VAZ002-007-008-TNZ017-027-036-066-071-291700
...SOUTHWEST VIRGINIA/EAST TENNESSEE...

CITY           SKY/WX    TMP DP  RH WIND       PRES   REMARKS
WISE*          MOSUNNY   82  68  61 NW5       30.15S
ABINGDON*      MOSUNNY   83  71  65 W3        30.10F
BRISTOL        MOSUNNY   83  70  64 W3        30.08S
KNOXVILLE      MOSUNNY   86  72  62 NE5       30.04S HX  92
OAK RIDGE      SUNNY     88  72  58 VRB3      30.06S HX  94
CROSSVILLE     PTSUNNY   84  72  67 NE5       30.10F
NASHVILLE      MOSUNNY   85  72  65 SW6       30.05S HX  91
$$

...KEY TO REMARKS...
VSB - VISIBILITY IN MILES
WCI - WIND CHILL INDEX
HX  - HEAT INDEX

$$


USA.gov is the U.S. government's official web portal to all federal, state and local government web resources and services.